Wind_Speed
6 7 7 8 8 8 9 10 10 11 12 12 12 12 12 11 10 9 8 7 6 5 4 3 2 3 2 3 3 3 2 3 5 7 9 11 12 9 6 6 7 9 11 11 11 12 13 13 12 11 9 8 7 6 6 5 3 2 1 4 7 11 11 10 11 8 7 8 7 6 6 5 5 5 5 7 6 5 3 2 2 3 5 8 7 7 8 12
7 7 8 8 9 9 10 11 12 13 13 13 13 13 13 12 11 10 8 7 6 5 4 3 1 1 1 2 2 3 2 1 3 5 8 10 13 11 8 7 7 8 10 11 11 11 12 13 14 13 12 10 8 6 5 5 3 3 1 2 5 9 9 9 11 9 8 7 7 6 6 5 5 5 5 6 5 2 1 1 2 0 4 7 7 8 9 13
8 8 9 9 9 10 11 13 13 14 14 15 15 14 14 13 12 10 8 7 6 6 5 3 1 0 1 1 1 1 1 1 2 6 7 10 14 13 10 8 7 8 9 11 11 10 11 12 14 15 15 14 12 9 6 5 4 4 3 1 4 7 8 10 10 9 8 7 7 7 7 6 5 6 5 4 4 1 2 2 3 2 2 5 6 9 10 14
9 9 10 10 11 12 13 14 15 15 16 16 16 15 14 13 12 10 9 7 7 6 5 4 2 2 2 1 1 1 1 2 3 4 5 9 14 15 12 9 8 7 8 10 11 11 11 12 13 14 15 15 15 13 11 8 5 3 3 2 3 5 7 9 10 9 8 8 8 8 7 6 5 5 4 5 4 0 2 1 1 2 2 4 5 8 11 14
10 10 11 12 13 14 15 15 16 16 16 16 16 15 14 13 12 10 9 8 7 7 6 4 3 3 3 3 2 2 1 1 2 3 4 8 14 15 13 11 8 7 7 9 10 10 11 11 12 12 14 15 15 15 14 12 9 5 2 1 2 4 7 9 10 9 7 7 9 8 6 5 5 4 4 5 3 1 1 0 3 1 2 5 5 9 12 14
11 12 13 14 14 15 16 16 16 16 16 15 15 14 13 12 11 10 9 8 7 7 6 5 4 3 5 4 4 4 3 2 2 4 5 6 11 14 14 13 10 9 9 9 9 10 9 10 10 11 11 12 13 14 15 14 12 9 4 1 1 2 6 9 9 8 7 7 8 8 7 5 4 5 4 3 2 0 0 2 5 4 4 6 8 10 11 12
12 13 14 14 15 15 16 16 16 16 15 14 13 13 12 11 10 9 8 8 8 8 7 6 5 4 5 6 6 6 5 4 3 5 6 7 9 13 15 14 13 11 10 9 9 9 8 7 8 9 9 9 10 11 13 14 12 11 7 3 2 2 3 9 9 8 8 7 9 9 8 6 5 5 4 2 2 1 1 3 5 6 5 7 9 11 11 11
13 13 14 14 15 15 15 15 14 13 13 12 11 11 10 10 9 8 7 7 7 7 7 6 5 5 5 7 7 7 7 6 4 4 7 8 9 12 15 15 14 13 10 9 8 7 6 4 5 7 8 7 9 10 11 13 11 11 10 7 4 3 1 7 8 8 9 8 9 10 9 8 7 6 5 5 4 2 2 5 5 6 6 7 10 12 12 12
12 13 13 14 14 14 14 13 12 11 11 10 9 9 9 8 8 7 6 6 7 7 7 6 6 6 5 7 7 8 9 7 5 5 5 7 8 10 14 15 14 13 11 10 8 6 5 3 4 6 6 6 9 10 11 13 11 10 10 9 7 4 1 4 8 8 8 8 8 9 9 10 9 8 6 7 5 3 4 6 6 6 6 8 10 12 12 13
12 12 12 12 12 12 11 11 10 10 9 9 9 9 8 8 8 7 6 6 6 6 6 6 7 6 6 7 8 9 9 8 7 7 5 6 7 8 12 16 16 14 12 11 8 6 4 3 4 5 5 5 8 9 10 12 11 10 9 9 10 7 3 2 7 10 9 9 9 8 9 11 12 11 9 7 5 4 5 4 6 7 7 8 10 12 13 13
11 11 11 11 11 10 10 10 10 9 9 9 9 9 9 8 8 8 8 7 6 5 5 5 6 6 7 7 8 9 9 9 9 8 6 6 6 7 11 17 18 15 13 12 10 6 3 2 3 5 6 6 7 8 8 9 10 11 10 9 11 9 6 4 5 10 11 10 10 10 10 11 13 12 9 7 6 6 6 4 6 7 8 9 9 12 13 14
10 10 10 10 10 10 10 10 9 9 9 9 9 9 8 8 9 9 8 8 6 5 4 3 4 6 7 8 8 9 8 9 9 7 6 6 6 6 8 14 20 18 15 15 12 7 3 1 1 3 6 6 6 8 7 8 10 12 11 11 12 11 7 5 4 7 11 11 12 12 12 14 14 12 9 8 8 8 7 6 6 7 8 9 10 11 13 14
10 10 10 10 10 10 10 9 9 9 9 9 9 8 8 8 8 8 8 7 6 6 4 2 2 5 7 7 7 7 5 5 5 5 5 6 6 5 5 9 19 21 19 19 15 10 6 3 2 2 5 5 7 7 6 8 11 12 13 12 12 10 7 6 4 4 8 11 12 12 15 16 13 13 13 11 10 9 8 7 7 7 7 9 11 11 12 14
11 11 11 11 10 10 10 9 9 9 9 9 8 8 8 8 7 7 6 6 5 4 4 3 3 4 5 5 5 4 4 4 4 5 5 6 5 5 5 7 15 21 21 19 15 12 8 5 5 3 3 5 7 7 7 9 11 13 14 12 11 10 8 7 5 3 5 8 10 12 16 16 12 14 15 14 13 11 9 7 7 7 6 8 10 11 11 13
12 12 12 11 11 10 10 9 9 9 9 8 8 7 7 7 6 6 5 4 3 2 4 5 4 3 3 2 4 5 7 7 7 7 8 8 6 5 7 8 14 21 21 19 16 13 10 7 7 4 4 6 6 7 8 9 12 13 12 10 12 12 10 7 5 4 4 6 8 10 13 11 10 15 16 15 15 12 11 9 8 8 7 7 9 10 10 11
12 12 12 12 11 10 9 9 9 9 8 7 7 6 6 6 5 4 3 2 2 1 4 6 5 3 2 1 3 5 7 8 8 8 8 8 7 6 9 9 14 21 22 19 17 15 12 10 9 7 8 8 7 7 9 11 12 11 10 12 15 16 14 10 6 5 5 7 8 9 10 8 8 14 16 16 15 14 14 12 10 9 7 7 8 9 9 11
12 12 12 12 11 10 9 9 9 8 7 6 5 5 5 5 4 3 2 2 2 3 4 6 6 4 3 3 5 5 5 6 6 6 7 7 7 7 9 8 11 20 24 21 18 17 15 13 11 10 10 10 9 8 9 9 8 8 12 16 17 17 17 14 10 8 6 7 8 9 10 9 8 13 15 16 16 16 16 14 12 10 8 7 9 9 9 11
11 12 12 11 10 10 8 8 8 7 5 4 4 4 4 4 3 3 4 4 4 4 4 6 7 6 6 6 7 5 3 4 5 6 6 7 7 8 8 8 11 18 24 23 20 19 16 15 13 12 13 13 11 11 11 8 8 11 16 19 18 19 19 17 13 9 9 9 9 10 9 6 7 14 15 15 16 17 16 15 14 12 11 9 9 10 10 10
11 11 11 11 10 9 8 8 7 5 4 3 3 3 3 3 4 5 6 6 5 5 5 6 7 7 8 7 5 4 3 4 6 7 6 6 5 5 8 10 12 16 23 24 21 19 18 16 16 17 16 15 14 14 14 12 14 17 18 19 21 22 20 17 15 12 10 11 11 11 9 5 6 13 15 14 15 16 17 17 17 16 15 13 11 11 11 11
10 10 10 9 9 8 7 7 5 3 3 2 2 2 3 3 6 8 8 8 8 8 8 9 8 7 7 6 4 3 3 3 6 6 5 5 5 3 7 12 13 15 22 24 20 19 20 18 19 20 18 15 15 15 15 15 16 17 19 20 22 23 17 13 16 15 12 14 13 11 10 7 6 11 14 15 15 16 18 19 19 19 18 17 15 13 12 12
9 9 9 8 8 8 7 6 4 2 1 1 1 2 3 4 8 11 12 12 13 13 12 12 10 8 8 6 5 3 2 3 4 3 2 4 4 3 5 9 12 13 18 23 19 17 20 22 21 18 16 15 15 15 15 15 16 17 19 20 22 21 16 13 17 17 14 15 15 13 12 10 7 9 14 17 17 15 16 18 19 19 19 18 18 15 13 12
8 8 8 8 7 7 6 5 3 2 1 0 2 2 3 5 11 15 17 17 17 17 16 15 14 12 11 9 7 5 3 3 3 2 2 3 3 3 3 3 7 9 13 19 19 16 18 24 23 17 15 15 14 14 14 15 16 17 18 20 22 20 18 16 15 14 12 14 14 15 15 11 7 9 14 18 18 16 15 17 17 18 19 18 18 17 14 13
7 7 7 6 6 5 5 4 3 2 1 1 2 3 3 8 15 18 19 20 19 18 17 16 15 13 12 10 8 6 4 3 2 2 2 3 4 3 2 2 1 6 10 14 16 17 18 19 18 16 16 15 14 13 13 14 16 17 18 21 22 21 20 20 18 18 17 16 16 16 17 15 11 13 17 17 17 16 15 16 16 17 17 16 17 17 16 15
6 6 6 5 4 4 4 4 3 2 1 1 3 4 4 11 17 19 20 21 19 18 16 15 14 13 12 10 8 6 5 4 2 2 2 3 4 2 2 1 1 4 6 9 12 15 16 13 10 11 12 11 11 10 10 13 15 16 18 20 22 21 20 22 22 23 23 22 21 18 18 19 14 12 16 19 18 17 15 16 17 17 16 15 16 18 18 18
6 5 4 3 3 3 3 3 2 2 1 2 4 5 7 14 19 19 20 19 16 14 12 12 11 11 10 9 7 5 5 5 3 2 3 3 3 2 1 1 3 2 2 6 9 12 11 7 7 8 8 8 10 10 9 12 16 17 16 16 19 19 19 21 23 23 22 22 21 15 11 12 12 10 11 15 19 18 16 18 18 17 16 16 17 18 19 19
4 3 2 2 2 2 2 2 2 2 3 4 6 7 11 17 19 17 17 15 12 10 8 7 7 7 7 6 5 4 3 3 2 2 3 2 2 2 4 4 3 1 1 5 9 12 8 2 5 7 7 9 11 11 10 10 15 17 13 11 15 19 19 21 23 21 17 15 15 10 9 10 16 16 12 12 16 17 18 19 20 18 18 17 16 18 19 20
3 2 2 2 2 3 3 3 3 4 5 7 8 10 14 18 18 16 13 10 7 6 6 4 4 5 4 2 2 2 2 3 1 1 2 1 1 2 4 5 3 1 2 5 9 9 5 2 5 6 7 9 10 11 10 10 15 16 12 13 18 19 19 20 22 21 19 17 15 13 11 12 17 16 11 11 13 15 19 20 21 21 19 18 16 16 19 21
2 2 3 3 3 3 4 4 5 6 8 9 10 11 15 17 17 13 7 4 3 3 3 2 2 3 2 2 2 2 1 1 1 2 3 4 3 2 4 3 2 2 5 8 10 9 7 6 8 8 10 12 13 13 11 12 16 16 13 18 18 16 16 18 19 21 22 18 15 16 13 9 14 17 11 11 13 15 19 20 21 22 20 18 16 15 17 19
2 4 4 5 4 5 5 6 8 10 10 11 12 12 14 15 14 9 3 2 3 3 2 1 0 2 3 3 1 1 4 5 4 4 6 7 5 4 6 6 4 5 8 12 13 12 10 11 11 11 13 14 15 14 14 16 17 17 17 18 16 13 14 16 18 19 16 12 13 18 16 9 11 22 19 15 16 15 15 16 17 20 20 19 18 16 15 17
4 5 6 6 6 6 7 9 11 12 12 13 13 12 13 12 10 5 2 2 4 4 3 1 2 4 4 5 3 3 5 6 6 6 7 8 7 5 7 8 8 9 10 13 14 12 11 11 11 11 11 12 15 16 16 17 17 18 18 17 15 14 16 16 14 12 6 6 15 20 20 13 9 20 21 14 13 12 11 11 11 14 18 20 19 18 16 16
5 5 7 7 7 8 10 11 13 14 14 14 14 13 12 9 6 4 3 3 3 5 4 2 2 3 4 6 6 5 6 8 10 9 7 8 9 9 8 8 8 9 11 12 11 10 10 9 8 7 7 9 14 17 17 17 19 19 17 15 12 10 10 7 4 4 3 5 15 17 18 15 11 16 19 15 14 14 13 12 9 10 12 14 17 17 17 16
5 6 7 8 9 10 11 13 14 14 16 16 16 14 11 8 6 6 4 3 2 4 6 6 3 1 0 2 3 2 4 8 12 11 8 8 9 9 10 10 8 8 9 8 9 10 10 8 4 3 4 6 11 14 16 17 17 16 13 10 8 5 2 1 1 2 4 7 12 13 10 11 16 20 21 17 14 12 11 11 8 8 8 9 12 14 16 17
6 7 9 11 12 13 13 13 13 14 15 15 14 11 7 5 5 6 5 3 3 4 6 7 6 5 4 4 5 4 2 5 10 10 8 9 8 8 10 12 12 11 9 8 10 11 8 5 2 4 2 3 6 9 10 10 10 9 7 6 5 2 1 2 2 1 5 8 11 11 7 8 15 17 14 11 10 11 11 9 5 7 7 7 10 11 13 15
8 10 13 15 15 14 13 13 12 13 13 11 9 6 4 6 6 5 5 4 4 5 5 4 4 4 4 6 7 5 4 3 5 8 8 9 8 7 8 11 14 15 15 14 12 10 8 5 3 5 3 3 5 9 9 8 8 8 8 6 4 2 3 2 3 1 5 5 3 6 4 4 8 8 9 12 14 14 13 9 6 9 10 10 11 11 12 13
11 14 16 16 14 14 13 12 11 11 10 9 7 4 4 7 7 5 4 3 3 4 3 2 1 1 3 5 6 6 5 5 3 4 6 6 5 4 3 3 7 9 10 11 9 8 10 8 5 6 6 5 6 8 10 11 9 6 7 6 3 2 2 4 5 6 8 6 1 5 6 9 12 13 15 16 16 13 11 9 7 10 12 12 11 11 11 12
14 17 17 15 13 12 11 10 10 8 8 7 4 4 7 8 6 5 4 1 0 0 1 2 3 3 1 2 3 4 4 4 3 3 3 4 5 5 4 3 1 1 2 3 5 5 7 7 6 7 8 8 7 6 8 11 8 4 7 8 5 3 5 6 6 7 7 5 5 6 8 13 14 13 14 12 12 12 9 9 8 11 14 13 11 11 10 10
17 18 16 14 12 12 10 9 8 6 6 4 3 6 10 9 5 3 3 4 3 3 3 4 4 3 1 1 1 2 1 2 3 4 4 4 4 4 2 2 2 1 1 2 3 4 7 9 9 10 9 7 6 5 4 8 9 6 8 10 9 9 7 5 3 3 3 2 5 6 9 14 12 10 12 12 12 12 9 9 9 11 14 13 12 11 10 10
18 17 15 14 13 12 11 10 8 7 6 3 5 9 10 7 4 1 2 4 3 3 3 3 3 1 1 2 3 3 3 1 1 1 2 3 3 2 1 1 1 2 3 3 4 4 7 10 10 10 9 6 6 6 3 4 5 4 5 7 9 11 8 4 3 2 2 2 4 5 8 12 13 14 15 13 12 10 7 7 9 10 12 13 12 11 11 11
18 16 15 14 13 12 12 11 9 7 5 4 7 10 8 5 2 1 3 4 4 4 4 2 2 2 1 1 3 4 4 3 2 2 1 2 2 3 3 3 3 4 5 6 7 7 7 8 8 9 10 9 8 7 4 2 1 1 3 4 5 8 11 10 6 5 3 1 2 4 5 7 12 14 13 10 10 9 4 3 5 7 9 10 10 10 11 11
16 15 14 13 13 12 12 11 9 7 5 5 7 9 7 4 1 3 4 4 5 5 4 2 2 2 2 1 2 3 4 3 2 3 1 2 3 3 3 5 5 6 8 8 9 10 8 8 9 11 13 13 9 6 4 3 2 3 5 6 2 1 7 12 12 13 10 4 2 1 3 7 11 11 10 8 8 7 3 2 4 5 6 6 7 9 9 10
15 14 13 13 12 12 11 11 9 6 6 6 7 8 6 3 1 3 4 4 3 3 3 3 3 3 3 2 2 2 2 2 2 3 3 4 5 4 4 6 8 10 11 11 11 11 9 8 11 12 12 11 8 6 6 4 3 4 5 7 5 2 2 2 6 11 11 7 3 1 3 9 12 10 9 8 6 4 3 5 7 6 5 6 7 8 9 10
13 13 13 12 11 11 10 10 8 6 6 7 7 6 5 2 1 3 4 4 2 2 3 4 4 4 4 4 3 3 3 3 3 4 4 5 5 5 5 7 9 12 13 12 10 9 8 8 11 12 11 10 9 7 7 6 7 6 5 8 7 4 5 5 3 8 10 9 7 3 2 8 9 7 8 7 5 6 5 7 7 6 5 5 5 6 7 9
12 12 12 11 11 10 10 10 8 6 7 7 6 6 4 2 2 2 1 2 2 2 3 5 6 5 4 5 4 5 5 5 5 4 4 5 5 5 7 7 8 10 10 10 8 8 8 7 9 10 10 10 8 6 8 10 11 9 4 3 5 4 5 8 10 11 11 11 8 3 3 6 9 7 7 7 6 10 7 7 7 4 2 2 2 3 5 7
13 12 12 11 11 10 10 10 7 6 7 6 6 6 4 4 4 3 3 3 4 4 4 5 6 6 6 6 6 6 6 5 6 6 5 5 5 6 7 6 6 8 9 8 8 9 8 6 7 8 7 5 4 5 8 11 11 11 8 5 5 3 2 7 13 10 6 9 9 6 5 6 7 8 7 4 8 10 6 7 8 4 2 1 1 1 4 5
14 13 12 11 10 9 9 8 6 5 6 6 7 7 5 5 5 7 7 6 6 5 5 6 6 6 7 8 8 7 7 7 7 8 8 8 7 7 7 7 6 7 8 8 8 9 8 6 6 5 2 1 2 3 5 7 8 9 7 5 7 8 6 5 12 10 5 8 9 7 8 9 8 9 6 5 10 10 6 7 8 6 4 2 2 1 3 4
13 12 12 11 10 8 7 7 6 5 5 6 7 6 5 5 5 7 7 7 6 5 5 5 7 7 8 8 8 8 9 10 10 10 10 11 10 10 9 8 7 8 8 8 8 8 7 6 5 3 2 3 4 4 5 7 8 8 7 6 7 10 11 5 11 11 8 10 12 10 11 15 13 9 5 7 11 11 9 9 9 8 6 5 4 4 3 3
11 11 11 11 9 8 7 6 5 3 5 6 7 6 5 5 5 5 7 7 7 6 5 6 7 8 8 8 7 7 7 8 8 10 11 12 12 13 12 10 9 8 8 9 10 9 8 7 6 6 5 5 6 7 8 9 10 9 8 8 8 10 13 10 10 12 11 11 12 10 11 15 13 9 8 8 11 10 12 11 10 11 10 8 7 6 5 4
9 9 9 9 8 8 8 7 5 4 6 8 8 8 7 7 7 7 8 8 7 6 6 7 7 7 8 8 6 6 7 6 7 8 10 12 13 14 14 13 13 11 10 9 10 9 9 9 7 7 7 7 8 9 11 12 12 10 9 9 9 10 12 12 11 12 11 10 12 12 12 13 11 9 9 9 11 12 14 12 10 10 10 9 8 7 5 5
10 9 10 9 8 7 8 7 6 7 7 7 8 8 8 9 9 9 9 8 7 6 5 4 5 4 5 5 5 6 8 9 9 8 9 11 11 12 13 12 13 14 14 12 9 7 8 8 6 7 7 7 7 8 11 14 13 12 11 11 12 11 13 16 13 9 10 9 12 13 13 11 10 9 7 6 10 13 13 10 9 8 8 8 7 6 4 4
10 10 11 11 9 8 7 7 7 7 6 7 7 7 7 8 9 8 8 8 7 7 6 5 5 6 6 6 6 9 11 12 11 10 10 11 11 10 11 10 8 10 11 11 10 7 6 6 5 6 7 5 4 5 8 10 11 12 12 12 13 12 13 17 17 13 12 9 10 11 10 10 9 8 7 7 11 13 11 8 8 8 8 8 6 4 4 4
10 10 11 12 10 8 6 6 6 6 6 7 7 6 4 6 7 7 8 8 7 7 7 7 7 8 7 8 9 12 14 14 12 8 8 10 11 10 11 12 10 7 6 7 9 8 5 5 4 6 7 5 3 4 6 7 7 9 12 13 11 7 9 15 17 15 14 10 10 10 9 9 10 10 9 10 11 11 9 8 7 6 6 6 5 5 6 6
9 9 10 10 10 8 7 6 6 6 7 8 7 6 5 5 7 8 8 8 8 8 8 8 9 10 9 10 13 15 17 13 8 5 6 9 11 10 11 12 11 9 7 6 7 8 7 6 4 5 7 7 6 5 7 6 4 7 11 11 7 4 7 12 13 12 11 9 8 7 6 8 10 11 11 11 9 11 11 9 8 6 4 4 4 4 5 4
Wind_Direction
258 271 278 281 286 290 296 300 304 307 309 312 313 315 316 316 317 319 321 323 321 316 319 335 359 9 356 336 324 321 316 220 201 185 173 160 151 148 130 101 97 87 77 73 68 67 68 69 72 77 87 91 91 86 82 86 83 63 150 188 192 192 195 201 204 208 209 200 192 186 195 215 213 193 172 168 182 189 205 246 239 227 188 177 194 186 182 203
267 275 279 281 286 291 295 299 302 305 306 308 309 310 310 311 312 314 316 315 312 303 298 308 337 10 341 336 336 326 341 241 195 166 167 162 152 149 136 116 110 97 82 82 78 69 66 68 70 72 74 74 74 74 75 81 70 48 73 163 180 188 196 200 203 213 216 207 200 190 191 216 219 197 190 187 197 211 109 61 26 305 198 192 204 198 182 195
272 276 279 282 287 290 294 297 300 302 303 304 305 305 305 306 308 309 311 307 304 299 288 285 269 234 266 316 333 319 6 44 135 156 169 164 155 149 140 129 120 110 93 86 83 75 70 69 71 71 68 64 60 56 54 55 46 38 41 121 175 184 197 200 200 207 213 207 200 196 195 215 220 193 197 210 215 232 51 41 6 355 237 217 216 204 184 189
275 277 280 283 286 289 292 294 297 299 300 301 301 301 301 302 304 305 305 302 298 294 287 279 246 212 222 237 234 227 44 73 118 156 167 155 154 150 142 139 130 122 107 94 88 82 77 72 72 71 66 60 55 49 44 40 32 27 27 1 207 199 203 204 202 203 207 204 207 214 208 219 229 209 212 224 213 133 25 2 301 331 253 217 218 203 183 186
276 278 281 282 285 287 290 292 295 296 297 298 298 298 299 300 301 300 298 295 291 287 285 280 254 210 212 215 199 193 149 105 106 123 140 141 150 152 148 148 141 133 122 103 92 85 80 74 68 66 63 57 51 46 38 34 28 20 26 1 261 226 211 201 198 198 201 204 216 226 221 224 236 238 241 226 193 103 356 221 189 222 205 196 197 197 185 184
277 279 281 282 285 287 289 292 293 294 295 296 297 297 298 298 298 297 293 289 284 281 280 278 262 221 209 209 199 193 182 162 108 116 143 148 149 155 158 156 147 139 133 113 94 86 81 73 64 59 59 53 46 42 32 27 24 22 27 18 343 255 217 198 195 198 204 212 221 229 227 232 245 250 251 221 183 133 257 192 183 175 177 185 178 185 185 180
277 279 281 283 285 287 289 291 292 294 296 297 298 298 300 300 300 298 293 286 278 276 274 271 264 235 211 209 202 197 195 188 146 126 146 165 159 161 166 161 149 145 139 123 102 88 83 73 63 55 53 48 39 37 26 19 19 21 24 19 23 14 214 199 199 205 209 214 222 232 235 239 259 264 258 243 269 324 167 196 191 169 167 180 170 174 180 177
278 280 282 284 286 288 290 292 294 296 297 299 300 301 303 305 307 306 300 289 276 271 266 263 258 241 218 212 208 201 202 197 180 146 145 167 170 164 168 165 153 151 151 142 120 100 96 78 62 45 41 42 29 26 19 15 14 13 17 18 20 33 173 199 206 211 212 216 224 237 243 240 254 267 259 250 270 302 197 201 191 173 174 178 167 168 175 176
279 281 283 286 288 290 293 295 298 298 299 301 301 303 306 308 311 310 305 295 281 272 261 255 249 241 224 215 212 205 206 204 198 186 158 164 172 165 165 166 160 156 161 159 134 109 106 85 60 33 29 39 22 14 5 3 5 3 8 16 15 17 50 199 207 210 213 218 224 235 241 241 247 259 256 243 252 266 225 208 191 180 177 181 171 166 172 176
281 284 286 288 291 292 295 297 297 298 298 298 299 300 302 303 305 303 299 293 288 282 266 250 241 238 226 219 216 208 208 207 201 202 193 176 176 172 166 168 168 163 167 169 149 120 100 66 44 23 15 20 10 1 350 348 352 350 347 0 6 358 348 250 214 215 218 221 223 229 239 246 249 254 255 245 246 259 253 222 192 180 175 185 178 168 172 177
284 286 288 290 291 293 295 295 295 295 295 295 294 294 296 299 300 300 296 289 285 283 274 256 243 234 226 223 217 212 213 210 208 212 216 208 193 187 177 172 172 170 172 174 164 139 99 29 14 17 357 350 355 353 352 345 340 341 335 336 349 348 336 317 241 221 222 225 229 234 242 248 250 251 251 248 247 253 261 238 195 183 178 185 184 176 173 178
286 287 288 290 292 295 296 295 294 292 292 291 291 293 297 299 299 299 297 291 281 273 275 268 243 229 225 222 217 216 220 216 214 218 223 226 222 218 203 179 172 173 174 172 166 154 148 258 310 4 343 338 349 344 351 346 331 330 328 324 334 342 336 319 288 233 228 230 234 241 248 248 247 250 251 248 246 246 256 243 204 191 186 186 187 185 179 180
286 286 287 290 293 298 300 299 295 291 289 289 293 300 303 303 301 300 298 296 285 266 254 247 227 225 224 219 220 221 219 214 206 210 215 217 222 235 242 198 179 175 172 168 165 168 178 211 248 312 329 329 336 325 323 331 323 320 321 323 328 338 345 335 323 257 239 234 234 241 250 251 248 251 250 247 247 244 250 251 220 199 196 194 189 188 188 188
284 284 284 287 290 295 300 301 298 292 289 292 302 310 311 309 306 306 307 308 300 266 229 208 197 217 229 217 211 199 181 175 171 188 200 203 214 220 234 221 191 181 173 168 170 179 188 211 239 248 305 313 318 309 311 319 312 312 317 320 326 336 345 341 332 290 256 240 237 241 253 259 255 252 250 246 248 243 241 253 239 213 203 199 192 190 193 195
281 281 282 284 287 290 294 297 296 293 292 299 310 316 317 316 315 317 323 329 333 270 214 203 194 205 234 212 188 178 170 166 172 188 195 198 211 217 214 210 196 187 178 174 179 186 196 217 233 238 263 279 292 297 306 311 302 305 315 322 329 336 339 337 329 294 265 245 244 245 258 270 256 248 249 246 247 243 236 244 247 226 208 202 197 193 194 195
279 279 281 283 285 286 287 290 293 296 299 307 315 319 323 325 326 334 341 356 43 139 190 194 194 187 181 155 150 157 162 167 177 188 191 195 205 219 215 203 194 191 184 182 188 193 204 219 232 245 252 258 269 293 300 295 293 302 321 330 331 334 333 332 331 311 281 258 256 254 262 276 256 247 249 247 247 243 238 240 242 231 215 209 203 199 196 194
278 278 280 281 282 283 281 284 290 298 307 312 317 324 331 337 345 1 30 55 87 128 164 180 182 166 140 119 122 128 145 162 167 168 172 179 189 209 216 204 195 194 190 189 194 198 208 218 230 244 249 252 258 280 288 285 297 316 328 329 328 329 327 326 327 322 307 284 274 270 272 278 261 255 256 251 248 244 240 241 241 237 230 220 209 207 202 196
279 278 278 278 279 279 277 277 286 301 313 317 322 332 342 355 17 46 76 84 92 115 141 161 162 153 139 127 119 112 118 141 143 140 153 167 181 201 204 192 195 199 195 195 199 200 208 219 228 240 246 247 247 256 261 272 308 315 319 319 318 321 319 318 320 318 316 308 291 282 289 299 256 254 261 255 249 246 242 241 243 243 241 235 220 214 208 196
282 280 278 277 275 274 272 270 282 304 321 327 331 346 5 26 63 81 90 96 101 112 123 139 145 143 145 138 111 100 106 126 138 130 134 146 153 186 194 189 199 204 198 199 205 204 210 223 230 235 242 244 244 249 255 272 294 300 307 309 310 315 314 314 315 309 307 305 300 291 295 311 246 248 262 262 251 247 245 241 242 244 242 240 231 221 214 200
286 283 280 276 271 268 264 264 278 305 323 340 357 21 42 67 90 95 97 101 102 103 106 120 129 123 130 132 102 105 111 116 137 130 129 131 113 151 194 194 202 207 201 200 207 211 215 227 233 234 238 244 247 252 262 276 287 293 300 302 306 308 309 321 319 308 301 296 298 301 293 284 247 242 256 263 258 250 248 246 246 246 243 240 237 228 218 201
287 285 282 276 268 263 257 258 270 290 313 3 50 59 74 92 102 104 104 104 102 101 98 101 107 105 106 109 102 111 116 129 147 139 145 135 103 119 179 195 208 213 205 201 206 215 221 229 235 235 240 249 249 251 263 274 283 290 296 300 302 300 302 317 315 307 299 288 288 294 287 277 257 242 246 253 258 257 254 255 255 252 246 242 239 234 224 203
284 284 283 277 269 259 252 252 257 267 279 67 81 90 92 103 114 114 109 106 104 101 98 94 94 96 97 95 96 98 104 132 156 139 149 148 113 105 120 187 218 220 213 206 208 216 224 231 234 232 240 251 251 253 264 273 282 289 293 297 295 294 300 306 308 311 305 291 286 286 282 275 253 237 240 248 256 262 262 261 261 258 250 243 238 233 228 211
282 284 283 278 268 254 246 243 243 255 249 114 96 108 109 121 125 119 112 109 105 100 97 95 92 92 92 88 88 92 95 118 154 128 132 154 133 122 109 70 216 221 221 215 214 222 230 236 236 233 239 248 252 256 267 276 281 284 289 293 290 288 295 298 300 305 302 296 293 288 283 278 259 237 239 247 255 259 261 261 258 255 249 241 239 236 233 223
281 282 281 276 264 245 236 233 234 244 228 122 114 122 127 137 134 125 117 112 106 102 96 93 91 88 87 84 84 92 91 90 105 108 121 144 138 144 140 84 259 229 231 231 229 236 241 246 250 241 235 243 259 261 267 280 282 281 285 288 284 282 290 297 301 301 295 290 289 289 288 286 278 256 246 247 252 255 256 256 254 251 245 238 237 237 234 229
278 276 276 271 252 229 221 219 221 222 194 128 128 132 139 147 142 131 123 114 107 103 96 90 90 88 87 80 73 80 91 92 81 78 105 130 137 170 206 245 259 257 267 248 246 258 263 263 260 250 237 254 279 276 266 278 289 290 283 275 276 284 294 300 301 297 288 284 285 283 281 291 298 290 265 249 251 257 256 255 258 256 248 239 230 227 227 225
270 263 257 244 210 198 195 190 184 174 150 134 139 141 147 152 149 141 128 116 107 103 97 93 87 87 88 74 59 55 76 94 87 78 84 106 165 217 240 248 258 269 263 247 252 270 287 293 260 266 265 276 288 278 263 282 301 296 279 272 283 290 295 297 296 291 278 276 286 274 244 267 294 299 290 265 257 261 260 257 260 259 253 245 232 225 224 223
254 225 202 181 170 171 166 163 156 143 134 139 146 148 154 155 152 147 131 110 98 98 96 83 55 67 76 44 24 27 54 86 102 126 89 119 224 233 232 235 248 231 236 243 251 273 308 324 291 294 287 288 284 269 268 298 304 288 281 301 299 291 291 292 294 290 275 270 280 273 248 254 282 296 299 277 260 257 259 257 256 257 255 250 241 231 225 223
204 176 168 154 152 155 154 150 139 132 131 143 151 152 158 157 153 152 133 88 81 100 92 59 33 47 21 314 326 338 279 197 245 234 195 204 221 232 227 234 271 275 264 262 266 289 313 304 303 298 285 285 274 266 282 299 293 285 302 318 307 296 294 290 292 287 272 266 267 265 252 240 271 286 293 280 265 256 258 259 257 256 254 250 245 239 230 225
152 157 149 136 131 133 138 135 132 132 134 144 154 155 156 159 163 167 149 79 84 83 70 98 99 318 290 269 295 255 229 236 244 219 202 209 217 233 237 239 258 270 267 269 278 296 304 297 296 290 286 287 273 271 289 292 288 293 309 314 303 299 293 283 284 276 259 249 258 261 250 229 270 283 283 279 274 269 269 272 269 262 257 251 247 246 242 232
140 144 135 125 120 122 128 131 131 133 135 142 151 153 152 159 170 161 116 109 79 51 15 325 305 301 266 246 265 232 210 225 229 215 215 222 226 238 245 245 252 264 265 265 278 301 311 298 286 285 295 298 280 276 287 289 287 294 304 307 301 292 281 277 276 262 232 242 264 266 256 240 268 286 282 283 289 292 294 294 289 272 260 253 249 248 249 243
133 134 132 127 124 126 131 133 132 131 136 141 144 147 145 150 154 105 96 147 78 45 31 3 305 291 260 248 260 240 210 215 220 223 232 234 235 239 246 252 254 266 272 269 279 306 316 295 274 272 288 295 282 278 284 286 285 290 300 304 297 281 270 274 265 213 171 257 269 273 264 238 234 274 287 301 304 300 294 293 295 288 274 262 254 250 250 250
129 131 134 132 128 129 133 136 136 136 139 139 137 139 134 123 102 70 87 145 65 57 74 70 73 63 327 220 208 193 200 210 216 224 234 238 244 244 244 252 257 271 283 278 284 304 317 308 279 232 256 277 279 284 287 283 283 289 296 292 271 251 237 264 202 184 215 245 262 274 267 232 240 272 294 306 308 305 293 287 283 274 272 265 257 251 250 251
128 131 136 133 129 129 132 136 141 144 145 143 139 139 128 104 88 71 80 101 78 96 102 82 82 95 101 115 109 103 142 194 210 220 230 236 245 249 247 252 255 258 268 276 289 303 316 321 252 191 235 279 286 306 307 290 286 285 288 287 258 216 89 273 271 299 259 253 255 258 253 243 258 279 296 302 319 324 305 293 261 230 225 237 248 248 248 250
129 133 136 132 128 128 130 133 137 143 148 151 151 146 116 98 99 89 88 102 101 111 125 104 91 106 111 103 94 90 101 128 187 211 225 233 239 243 247 256 258 256 260 270 286 295 290 290 244 228 279 315 312 324 327 315 304 281 270 268 260 50 58 262 261 287 278 283 247 215 215 252 267 284 298 300 314 316 302 294 255 222 216 219 232 237 239 243
134 139 136 129 127 128 129 131 132 134 140 145 153 155 120 107 106 96 87 108 116 114 142 151 139 159 110 97 90 88 94 93 121 193 214 223 218 201 202 249 264 258 257 262 270 273 272 272 253 261 296 317 316 318 316 314 306 270 255 246 228 39 5 289 295 293 290 310 285 202 229 275 284 290 295 297 306 308 294 282 254 225 222 219 224 233 234 236
144 145 139 130 127 126 128 130 129 132 134 136 149 133 114 111 108 85 57 32 237 222 235 228 239 242 163 102 81 71 88 103 129 154 161 168 152 134 124 98 81 231 234 255 261 261 264 260 247 274 298 295 298 310 302 302 304 261 247 241 228 265 294 305 311 303 302 297 269 241 257 283 292 295 298 298 303 305 288 268 250 226 225 223 224 236 240 237
148 147 142 135 129 127 128 127 129 142 143 148 172 127 111 107 101 77 30 345 315 301 276 246 237 244 82 74 1 3 62 118 144 153 150 157 140 118 109 79 72 65 22 309 288 274 271 274 274 285 291 278 291 315 269 271 290 275 243 241 241 248 273 313 326 322 343 282 265 267 274 289 297 294 296 299 300 296 274 255 249 233 227 226 226 233 240 242
144 141 140 139 135 131 130 128 132 143 140 152 160 131 117 108 97 85 304 317 318 305 283 249 212 197 78 49 6 349 331 301 220 188 179 182 170 160 189 300 313 301 329 326 312 298 284 285 285 284 282 270 289 304 257 234 283 277 238 248 248 235 242 295 332 314 309 279 280 278 275 284 287 285 291 299 299 291 265 244 245 232 222 224 227 231 238 243
136 133 136 142 141 136 136 138 141 143 140 153 147 129 118 115 97 336 302 301 293 285 280 250 170 160 153 26 9 360 346 333 329 326 292 206 199 203 229 274 270 275 304 317 314 308 296 284 273 270 276 286 298 297 268 185 148 181 197 234 253 230 227 245 282 293 275 264 290 286 285 282 283 288 293 294 293 293 281 235 229 213 212 221 230 235 240 247
131 129 136 147 146 140 141 145 149 155 163 155 140 131 125 122 67 329 319 302 283 272 262 227 182 185 202 288 315 330 343 346 334 324 283 216 230 236 257 282 288 289 298 311 314 309 299 275 264 269 277 287 303 307 286 263 228 203 183 179 170 178 213 232 262 276 267 246 202 238 293 291 291 290 284 283 290 291 273 192 176 168 189 219 231 237 239 242
133 132 142 153 152 148 150 152 156 173 180 155 139 138 137 124 27 337 321 310 290 262 241 229 233 241 250 259 253 278 313 307 271 250 225 226 235 246 276 295 303 305 306 310 310 305 296 273 274 285 287 289 295 290 281 267 219 187 149 146 156 128 114 215 263 269 262 253 242 208 281 296 301 287 270 279 286 265 190 146 134 140 176 208 220 230 234 233
138 138 150 159 157 159 166 166 170 188 182 162 152 149 151 171 326 345 333 327 316 260 245 249 250 254 262 262 257 276 290 280 251 230 230 238 236 247 276 293 301 305 311 312 307 302 294 280 283 288 288 291 293 282 266 239 200 176 122 115 139 133 64 42 327 285 281 278 271 253 262 293 298 279 272 284 244 193 160 138 137 150 177 193 205 217 225 227
148 149 157 163 161 165 174 174 174 180 174 166 171 174 181 244 297 346 344 330 329 294 274 267 259 256 259 260 270 287 291 283 271 256 240 235 238 253 268 285 297 303 311 311 305 306 301 292 295 296 293 290 285 267 240 216 199 199 192 137 141 120 49 4 333 306 285 275 263 227 220 274 285 279 291 295 221 189 171 153 158 171 174 146 170 203 210 217
162 161 160 162 164 168 174 172 169 179 181 178 187 200 228 270 291 309 307 319 332 327 310 287 270 269 273 272 278 286 291 287 272 261 247 236 241 250 256 269 286 298 306 306 309 315 312 306 306 309 317 312 281 239 218 208 203 210 220 216 206 211 325 342 342 333 283 259 249 231 232 253 281 291 289 260 205 199 190 176 181 200 220 126 83 203 202 201
170 170 164 164 168 171 172 166 166 187 195 191 197 215 248 268 287 305 312 321 328 324 314 299 286 286 285 284 287 287 289 288 275 262 256 250 245 238 241 255 269 286 296 298 310 317 311 301 297 299 306 264 269 254 228 231 233 226 225 224 225 234 244 318 341 336 297 261 248 241 243 240 260 289 278 186 192 217 230 208 206 221 241 271 318 276 213 191
178 180 177 177 178 180 173 159 161 191 211 211 215 232 259 276 296 308 312 318 319 314 308 295 291 292 286 280 279 276 276 276 271 265 262 257 247 236 238 250 259 265 269 274 287 301 300 286 275 271 258 249 263 284 276 276 277 262 247 242 239 232 227 270 331 324 303 284 266 249 246 249 256 271 249 180 189 222 248 235 225 235 248 276 298 284 260 212
190 196 197 195 187 179 177 169 166 199 230 235 240 253 267 280 295 300 300 302 302 303 303 293 285 281 278 278 277 276 278 274 269 269 270 268 260 250 244 246 252 254 253 261 268 275 286 285 269 262 275 277 272 279 281 278 282 284 264 248 253 244 233 251 306 318 313 295 269 243 242 258 265 257 238 207 198 231 265 258 239 239 247 265 285 284 274 240
203 211 210 208 195 177 178 184 189 215 243 251 255 257 260 272 284 286 289 291 292 297 299 294 292 287 288 297 306 310 310 303 288 279 278 278 275 269 258 247 246 248 249 258 262 263 274 279 270 263 269 278 275 275 275 268 270 281 267 242 244 250 244 247 276 313 318 291 270 263 257 263 265 246 237 226 219 245 268 263 243 241 250 259 266 267 259 246
220 224 218 216 208 192 191 201 213 231 251 262 263 259 263 277 284 284 285 287 292 305 315 311 323 347 348 342 346 340 334 329 320 310 305 300 293 288 278 259 248 246 247 252 252 253 264 261 255 263 269 279 280 271 268 265 266 272 264 246 242 247 248 244 253 306 323 286 277 282 272 264 262 253 248 227 222 240 257 257 245 245 254 261 259 252 247 252
224 224 220 219 216 206 205 216 232 249 262 267 267 266 273 284 286 287 296 299 303 325 352 3 11 22 23 13 356 341 336 330 321 321 323 316 312 308 299 291 274 248 241 242 234 236 255 244 243 274 279 275 262 253 263 268 269 266 254 240 238 241 241 240 253 294 314 298 292 289 266 247 245 254 264 244 225 233 246 252 245 246 259 268 265 263 269 276
225 224 224 224 223 217 215 228 246 263 272 271 269 268 271 281 289 300 311 312 315 334 349 356 360 3 1 357 347 335 328 319 308 312 322 309 306 309 302 298 292 270 251 242 226 219 224 221 235 278 284 280 257 255 281 287 269 249 236 231 233 230 226 233 249 286 309 313 309 295 270 248 235 233 250 254 235 228 237 239 228 234 259 268 271 281 281 280
223 222 223 224 225 229 232 241 257 270 272 269 267 266 264 275 293 306 310 309 316 328 334 339 346 348 345 341 337 329 322 311 289 287 304 296 295 301 299 299 295 285 284 277 243 220 208 211 238 274 281 286 288 296 309 309 277 239 232 237 233 175 183 216 240 277 300 306 312 308 293 280 257 235 247 268 249 220 221 220 206 206 233 240 248 267 262 260
Height
3181 3182 3182 3182 3182 3182 3182 3181 3181 3181 3181 3180 3180 3180 3180 3179 3179 3179 3179 3179 3178 3178 3178 3178 3178 3177 3177 3177 3176 3176 3176 3176 3176 3177 3178 3178 3179 3180 3181 3181 3181 3181 3181 3181 3181 3180 3179 3179 3178 3178 3178 3178 3178 3178 3177 3178 3178 3178 3178 3178 3178 3179 3179 3179 3180 3180 3180 3181 3181 3181 3181 3181 3182 3183 3183 3184 3184 3184 3185 3185 3185 3185 3185 3185 3185 3185 3186 3187
3181 3181 3181 3181 3181 3181 3181 3181 3180 3180 3180 3179 3179 3179 3179 3179 3178 3178 3178 3178 3178 3177 3177 3177 3177 3177 3177 3176 3176 3176 3176 3176 3176 3177 3177 3178 3179 3180 3181 3181 3181 3182 3182 3182 3182 3181 3181 3180 3179 3179 3179 3179 3178 3178 3178 3178 3178 3178 3178 3178 3178 3179 3179 3180 3180 3181 3181 3181 3182 3182 3182 3182 3182 3183 3183 3184 3184 3184 3185 3185 3185 3186 3186 3185 3186 3186 3186 3187
3180 3181 3181 3181 3180 3180 3180 3180 3179 3179 3179 3178 3178 3178 3178 3177 3177 3177 3177 3177 3177 3176 3176 3177 3177 3177 3176 3176 3176 3176 3176 3176 3176 3176 3177 3178 3179 3180 3181 3181 3182 3182 3182 3183 3182 3182 3182 3181 3181 3180 3180 3179 3179 3179 3179 3179 3179 3179 3178 3178 3179 3179 3179 3179 3180 3181 3181 3182 3182 3182 3182 3182 3182 3183 3183 3184 3184 3185 3185 3186 3186 3186 3186 3186 3186 3186 3186 3187
3180 3180 3180 3180 3180 3179 3179 3179 3179 3178 3178 3177 3177 3177 3176 3176 3176 3176 3176 3176 3176 3175 3175 3176 3176 3176 3176 3176 3176 3176 3176 3176 3176 3176 3177 3177 3178 3179 3181 3181 3182 3182 3182 3183 3183 3183 3182 3182 3182 3181 3180 3180 3180 3180 3180 3180 3180 3179 3179 3179 3179 3179 3179 3180 3180 3180 3181 3181 3182 3182 3182 3183 3183 3183 3183 3184 3184 3185 3185 3185 3186 3186 3186 3186 3186 3187 3187 3187
3179 3179 3179 3179 3179 3178 3178 3178 3177 3177 3177 3176 3176 3175 3175 3175 3175 3175 3175 3175 3175 3174 3174 3175 3175 3175 3175 3175 3175 3175 3175 3176 3176 3176 3176 3177 3178 3179 3180 3181 3182 3182 3183 3183 3183 3183 3183 3183 3182 3182 3181 3181 3181 3181 3181 3181 3180 3180 3179 3179 3179 3179 3179 3180 3180 3181 3181 3181 3181 3182 3183 3183 3183 3183 3184 3184 3184 3185 3185 3185 3185 3185 3185 3186 3186 3187 3188 3188
3178 3178 3178 3178 3177 3177 3177 3177 3176 3176 3175 3175 3174 3174 3174 3174 3174 3174 3174 3174 3173 3173 3173 3174 3174 3174 3174 3174 3174 3175 3175 3175 3176 3176 3176 3177 3178 3179 3180 3181 3181 3182 3183 3183 3184 3184 3183 3183 3183 3182 3181 3181 3181 3181 3181 3181 3181 3180 3180 3180 3179 3179 3179 3180 3180 3181 3181 3181 3181 3182 3182 3183 3183 3183 3183 3184 3184 3184 3184 3185 3185 3185 3185 3186 3186 3187 3188 3188
3177 3177 3177 3176 3176 3176 3175 3175 3175 3174 3174 3174 3173 3173 3172 3172 3172 3172 3172 3172 3172 3172 3172 3173 3173 3173 3173 3173 3174 3174 3174 3175 3175 3176 3176 3177 3178 3179 3180 3181 3181 3182 3183 3183 3184 3184 3184 3183 3183 3182 3182 3181 3181 3181 3181 3181 3181 3181 3180 3180 3180 3179 3179 3180 3180 3181 3181 3181 3181 3182 3182 3183 3183 3183 3183 3184 3184 3184 3184 3184 3185 3185 3185 3186 3186 3187 3188 3189
3176 3176 3175 3175 3175 3174 3174 3174 3174 3173 3173 3172 3172 3172 3171 3171 3171 3171 3171 3171 3171 3171 3171 3172 3172 3172 3172 3173 3173 3173 3174 3174 3175 3175 3175 3176 3177 3179 3180 3181 3181 3182 3183 3183 3184 3184 3184 3183 3183 3183 3182 3182 3182 3181 3181 3181 3182 3181 3181 3180 3180 3180 3180 3180 3180 3181 3181 3181 3181 3181 3182 3182 3183 3183 3183 3184 3184 3184 3184 3184 3185 3185 3185 3186 3186 3187 3188 3190
3175 3175 3174 3174 3174 3173 3173 3173 3172 3172 3172 3172 3171 3171 3171 3170 3170 3170 3170 3170 3170 3170 3170 3171 3171 3171 3171 3172 3172 3173 3173 3174 3174 3175 3175 3176 3176 3178 3179 3181 3182 3182 3183 3183 3184 3184 3184 3184 3183 3183 3183 3182 3182 3182 3181 3182 3182 3182 3182 3181 3180 3180 3180 3180 3180 3181 3181 3181 3181 3182 3182 3182 3182 3183 3183 3184 3184 3184 3184 3184 3185 3185 3185 3186 3186 3187 3189 3190
3174 3173 3173 3173 3172 3172 3172 3172 3171 3171 3171 3171 3170 3170 3170 3170 3170 3169 3169 3169 3169 3169 3169 3169 3170 3170 3170 3171 3171 3172 3172 3173 3174 3174 3175 3175 3176 3177 3178 3180 3181 3182 3183 3183 3184 3184 3184 3184 3183 3183 3183 3182 3182 3182 3181 3182 3182 3182 3182 3181 3181 3180 3180 3180 3180 3180 3181 3181 3182 3182 3182 3182 3182 3182 3183 3184 3184 3184 3184 3184 3184 3185 3185 3186 3187 3187 3188 3190
3172 3172 3172 3172 3171 3171 3171 3171 3171 3170 3170 3170 3169 3169 3169 3169 3169 3169 3169 3169 3169 3169 3168 3168 3169 3169 3169 3170 3170 3171 3172 3172 3173 3174 3174 3175 3175 3176 3177 3179 3180 3181 3182 3183 3184 3184 3184 3184 3183 3183 3183 3182 3182 3182 3181 3181 3182 3182 3182 3181 3181 3180 3180 3180 3180 3180 3180 3181 3181 3181 3181 3181 3181 3181 3182 3183 3184 3184 3184 3184 3184 3185 3185 3186 3186 3187 3188 3190
3171 3171 3171 3170 3170 3170 3170 3170 3170 3169 3169 3169 3169 3168 3168 3168 3168 3168 3168 3168 3168 3168 3168 3168 3168 3168 3168 3169 3170 3170 3171 3172 3173 3174 3175 3175 3176 3176 3177 3178 3179 3180 3181 3182 3183 3184 3183 3183 3183 3183 3183 3182 3182 3182 3181 3181 3181 3181 3181 3181 3181 3180 3180 3180 3179 3179 3180 3180 3180 3181 3181 3180 3180 3181 3182 3183 3183 3184 3184 3184 3184 3185 3185 3186 3186 3187 3188 3189
3170 3170 3169 3169 3169 3169 3169 3169 3168 3168 3168 3168 3168 3168 3168 3168 3167 3167 3167 3167 3167 3167 3167 3167 3167 3167 3167 3168 3169 3170 3170 3171 3172 3173 3174 3175 3175 3176 3177 3178 3178 3178 3179 3180 3182 3182 3182 3182 3182 3182 3182 3182 3182 3182 3181 3181 3181 3181 3181 3181 3180 3180 3180 3179 3179 3179 3179 3179 3180 3180 3179 3179 3180 3181 3181 3182 3182 3183 3183 3184 3184 3184 3185 3185 3186 3187 3188 3189
3169 3169 3168 3168 3168 3168 3168 3168 3167 3167 3167 3167 3167 3167 3167 3167 3166 3166 3166 3166 3166 3166 3167 3167 3167 3167 3167 3168 3168 3169 3170 3171 3171 3172 3173 3174 3174 3175 3176 3177 3178 3179 3179 3180 3181 3181 3181 3181 3181 3182 3182 3182 3182 3181 3181 3181 3181 3181 3181 3180 3180 3180 3180 3179 3179 3179 3179 3179 3179 3180 3178 3178 3179 3180 3180 3181 3182 3183 3183 3184 3184 3184 3184 3185 3186 3187 3187 3189
3168 3167 3167 3167 3167 3167 3167 3167 3167 3166 3166 3167 3167 3167 3166 3166 3166 3165 3165 3165 3165 3165 3166 3166 3166 3166 3167 3167 3168 3168 3169 3170 3171 3171 3172 3172 3173 3174 3175 3176 3177 3178 3179 3180 3180 3180 3180 3180 3181 3181 3182 3182 3182 3181 3181 3181 3181 3181 3181 3180 3180 3180 3180 3179 3179 3179 3178 3179 3179 3179 3178 3177 3178 3178 3178 3180 3181 3182 3183 3183 3184 3184 3184 3185 3185 3186 3187 3188
3166 3166 3166 3166 3166 3166 3166 3166 3166 3166 3166 3166 3166 3166 3166 3165 3165 3165 3165 3164 3164 3164 3165 3165 3166 3166 3167 3167 3167 3168 3169 3169 3170 3170 3171 3172 3173 3173 3174 3175 3176 3177 3178 3179 3179 3180 3180 3180 3180 3181 3181 3181 3182 3181 3181 3181 3181 3181 3181 3180 3180 3180 3179 3179 3179 3179 3178 3178 3178 3178 3177 3177 3177 3177 3177 3178 3179 3181 3182 3182 3183 3184 3184 3184 3185 3186 3187 3188
3165 3165 3165 3165 3165 3165 3165 3165 3165 3165 3165 3166 3166 3166 3165 3165 3165 3164 3164 3164 3164 3164 3164 3165 3166 3166 3167 3167 3167 3168 3169 3169 3169 3170 3170 3171 3172 3172 3173 3174 3175 3176 3177 3178 3178 3179 3179 3180 3180 3180 3181 3181 3181 3182 3181 3181 3180 3180 3180 3180 3179 3179 3179 3179 3179 3179 3178 3178 3177 3177 3177 3177 3177 3176 3176 3177 3178 3179 3180 3182 3183 3183 3184 3184 3185 3185 3186 3187
3164 3163 3163 3163 3164 3164 3164 3164 3165 3165 3165 3165 3165 3165 3165 3165 3164 3164 3164 3164 3163 3163 3164 3164 3165 3166 3167 3167 3168 3168 3169 3169 3170 3170 3170 3170 3171 3172 3172 3173 3174 3175 3176 3177 3177 3178 3179 3179 3179 3180 3180 3180 3181 3181 3181 3180 3180 3180 3180 3179 3179 3178 3178 3178 3179 3179 3178 3178 3177 3176 3176 3176 3176 3175 3175 3176 3177 3178 3179 3181 3182 3183 3184 3184 3185 3185 3186 3187
3162 3162 3162 3162 3163 3163 3163 3164 3164 3164 3165 3165 3165 3165 3165 3164 3164 3164 3164 3163 3163 3163 3164 3164 3165 3166 3167 3168 3168 3169 3169 3169 3170 3170 3170 3170 3170 3171 3171 3172 3173 3174 3175 3176 3177 3178 3178 3178 3179 3179 3179 3180 3181 3181 3181 3181 3180 3180 3180 3179 3178 3178 3177 3177 3178 3178 3178 3177 3176 3176 3175 3175 3176 3175 3174 3175 3176 3177 3178 3179 3180 3181 3182 3183 3184 3185 3186 3187
3161 3161 3161 3161 3161 3162 3162 3163 3164 3164 3164 3164 3165 3165 3164 3164 3164 3164 3164 3163 3164 3164 3164 3165 3165 3166 3167 3168 3169 3169 3169 3170 3170 3170 3170 3170 3170 3171 3171 3172 3173 3173 3174 3175 3176 3177 3177 3177 3177 3177 3179 3180 3181 3181 3181 3181 3180 3180 3179 3179 3178 3177 3176 3176 3177 3177 3177 3177 3175 3175 3175 3174 3175 3174 3174 3174 3175 3175 3176 3176 3178 3179 3181 3182 3183 3184 3185 3187
3160 3160 3160 3160 3160 3161 3161 3162 3163 3164 3164 3164 3164 3164 3164 3164 3164 3164 3164 3164 3164 3165 3165 3165 3166 3167 3168 3168 3169 3169 3170 3170 3170 3170 3171 3170 3170 3171 3171 3172 3172 3173 3173 3175 3175 3176 3176 3175 3175 3177 3179 3180 3180 3181 3181 3180 3180 3179 3179 3178 3177 3176 3175 3175 3175 3176 3176 3176 3175 3175 3174 3173 3174 3174 3173 3172 3172 3173 3174 3174 3176 3177 3179 3180 3182 3183 3185 3187
3159 3159 3159 3159 3160 3160 3161 3162 3162 3163 3163 3164 3164 3164 3164 3165 3165 3164 3164 3165 3165 3166 3166 3166 3167 3168 3168 3169 3169 3170 3170 3170 3170 3170 3171 3171 3171 3171 3172 3172 3172 3173 3174 3174 3175 3175 3175 3174 3175 3178 3179 3179 3179 3180 3180 3180 3179 3178 3178 3177 3176 3175 3175 3174 3174 3175 3175 3175 3174 3174 3173 3172 3173 3173 3172 3171 3171 3171 3173 3173 3174 3175 3176 3178 3179 3181 3184 3185
3158 3158 3158 3158 3159 3159 3160 3161 3162 3162 3163 3163 3164 3164 3165 3165 3165 3165 3165 3165 3166 3167 3167 3167 3168 3169 3169 3169 3170 3170 3170 3170 3170 3171 3171 3171 3171 3172 3172 3172 3173 3173 3173 3174 3174 3175 3174 3173 3175 3177 3178 3178 3178 3179 3179 3179 3178 3177 3177 3177 3175 3174 3175 3174 3173 3174 3174 3174 3173 3173 3172 3171 3171 3171 3170 3170 3170 3171 3171 3172 3173 3173 3174 3175 3177 3179 3182 3184
3158 3158 3158 3158 3158 3159 3159 3160 3161 3162 3162 3163 3164 3164 3164 3165 3166 3166 3166 3166 3167 3168 3168 3169 3169 3169 3170 3170 3170 3171 3171 3171 3170 3171 3171 3172 3172 3172 3172 3172 3172 3172 3173 3173 3174 3174 3173 3174 3176 3176 3176 3177 3177 3177 3178 3177 3177 3176 3176 3175 3173 3173 3174 3174 3173 3173 3173 3172 3172 3172 3171 3169 3169 3169 3169 3169 3169 3170 3170 3170 3171 3171 3172 3174 3175 3177 3179 3181
3157 3157 3157 3157 3158 3158 3159 3160 3161 3161 3162 3163 3163 3164 3164 3165 3166 3166 3166 3167 3168 3169 3169 3170 3170 3170 3170 3171 3171 3171 3171 3171 3171 3171 3172 3172 3172 3172 3172 3172 3172 3172 3173 3173 3173 3173 3172 3173 3174 3175 3175 3176 3176 3176 3177 3177 3176 3175 3174 3173 3173 3172 3173 3173 3172 3172 3172 3170 3170 3172 3172 3168 3166 3167 3167 3168 3168 3168 3169 3169 3168 3169 3170 3172 3173 3174 3176 3178
3156 3156 3157 3157 3157 3158 3158 3159 3160 3161 3162 3162 3163 3164 3164 3165 3166 3167 3166 3167 3168 3169 3170 3170 3170 3171 3171 3171 3171 3171 3171 3171 3172 3172 3172 3172 3172 3172 3172 3172 3172 3172 3172 3173 3173 3172 3172 3173 3173 3174 3174 3175 3175 3175 3175 3176 3175 3173 3172 3172 3172 3172 3172 3171 3171 3171 3171 3169 3169 3171 3171 3168 3165 3165 3166 3167 3166 3166 3167 3167 3167 3168 3169 3169 3170 3172 3174 3176
3156 3156 3156 3157 3157 3157 3158 3159 3160 3161 3161 3162 3163 3163 3165 3165 3166 3167 3166 3167 3169 3170 3170 3170 3171 3171 3171 3171 3171 3171 3171 3171 3172 3172 3172 3172 3172 3172 3172 3172 3172 3172 3172 3172 3172 3171 3171 3172 3173 3173 3173 3173 3173 3173 3174 3175 3174 3172 3171 3171 3171 3170 3170 3169 3169 3169 3169 3169 3169 3169 3170 3169 3166 3164 3164 3165 3165 3165 3165 3165 3166 3166 3167 3167 3169 3170 3172 3174
3156 3156 3156 3156 3157 3157 3158 3159 3159 3160 3161 3162 3163 3164 3165 3165 3166 3166 3166 3168 3170 3170 3170 3170 3170 3170 3170 3170 3171 3171 3171 3171 3172 3172 3172 3172 3172 3172 3172 3172 3172 3173 3173 3172 3171 3171 3171 3172 3172 3172 3172 3172 3172 3172 3173 3174 3172 3170 3170 3170 3169 3168 3168 3168 3168 3167 3168 3169 3169 3168 3169 3170 3166 3162 3163 3164 3163 3164 3163 3163 3164 3164 3165 3166 3167 3168 3170 3172
3155 3156 3156 3156 3157 3158 3158 3159 3159 3160 3160 3162 3163 3164 3165 3165 3166 3166 3166 3169 3170 3170 3169 3170 3170 3170 3170 3170 3170 3170 3170 3171 3171 3171 3172 3172 3172 3172 3172 3172 3172 3172 3172 3172 3171 3170 3171 3171 3171 3171 3171 3170 3170 3170 3171 3171 3170 3169 3169 3168 3167 3167 3166 3166 3166 3166 3167 3168 3167 3166 3167 3168 3164 3160 3162 3163 3162 3162 3162 3162 3162 3162 3163 3164 3165 3166 3167 3169
3155 3155 3156 3156 3157 3158 3158 3159 3159 3160 3161 3162 3163 3164 3165 3165 3166 3166 3167 3169 3170 3170 3170 3169 3169 3169 3169 3169 3169 3169 3169 3170 3170 3171 3171 3171 3171 3172 3172 3172 3172 3172 3171 3171 3170 3169 3170 3170 3170 3170 3169 3169 3168 3168 3169 3169 3168 3168 3168 3167 3166 3166 3165 3165 3165 3165 3167 3167 3165 3164 3165 3167 3164 3158 3159 3161 3161 3160 3161 3161 3161 3161 3161 3162 3163 3164 3165 3166
3155 3155 3156 3157 3157 3158 3159 3159 3160 3160 3161 3162 3163 3164 3164 3165 3165 3166 3168 3169 3170 3170 3169 3169 3169 3168 3168 3168 3168 3168 3169 3169 3169 3170 3170 3170 3170 3171 3171 3171 3171 3171 3170 3170 3169 3169 3169 3168 3168 3168 3168 3168 3167 3167 3168 3168 3167 3167 3167 3166 3165 3165 3164 3165 3164 3165 3167 3166 3163 3162 3163 3166 3164 3158 3157 3160 3159 3159 3159 3159 3160 3160 3160 3160 3161 3162 3163 3164
3155 3156 3156 3157 3157 3158 3159 3160 3160 3161 3162 3162 3163 3164 3164 3165 3166 3167 3168 3169 3170 3170 3169 3169 3169 3168 3168 3167 3167 3167 3167 3168 3168 3168 3169 3170 3170 3170 3170 3171 3171 3171 3170 3169 3169 3168 3168 3167 3167 3167 3167 3167 3167 3166 3166 3166 3166 3165 3165 3165 3165 3164 3165 3165 3165 3166 3166 3164 3162 3162 3162 3163 3161 3157 3157 3158 3157 3157 3157 3157 3158 3158 3158 3159 3159 3160 3161 3162
3155 3156 3157 3157 3158 3159 3160 3160 3161 3162 3162 3163 3163 3164 3165 3165 3167 3169 3169 3169 3170 3170 3169 3169 3169 3168 3168 3167 3167 3167 3167 3167 3167 3167 3168 3169 3169 3169 3170 3170 3170 3170 3170 3169 3169 3168 3167 3167 3167 3167 3167 3166 3166 3166 3165 3165 3165 3164 3164 3165 3165 3165 3166 3166 3166 3166 3164 3162 3161 3161 3162 3161 3158 3156 3157 3156 3156 3156 3156 3156 3156 3156 3157 3157 3158 3159 3160 3160
3156 3157 3157 3158 3159 3160 3160 3161 3161 3162 3163 3163 3164 3165 3165 3166 3168 3169 3169 3169 3170 3170 3170 3170 3169 3169 3168 3167 3167 3167 3167 3167 3167 3167 3168 3168 3168 3168 3169 3169 3169 3169 3169 3169 3169 3168 3167 3167 3167 3166 3166 3165 3165 3165 3164 3164 3164 3163 3164 3164 3164 3164 3165 3166 3165 3165 3163 3161 3161 3161 3161 3159 3156 3156 3156 3155 3155 3155 3155 3155 3155 3155 3156 3156 3157 3157 3158 3159
3156 3157 3158 3159 3159 3160 3161 3161 3162 3162 3163 3164 3164 3165 3165 3167 3168 3169 3169 3170 3170 3170 3170 3170 3169 3169 3168 3168 3168 3168 3167 3167 3167 3167 3167 3167 3168 3168 3168 3168 3168 3168 3168 3168 3168 3167 3166 3166 3166 3166 3165 3165 3164 3164 3163 3162 3162 3162 3163 3163 3163 3163 3164 3164 3163 3163 3162 3161 3161 3160 3158 3156 3155 3155 3155 3155 3154 3154 3154 3154 3154 3154 3154 3155 3155 3156 3157 3158
3157 3158 3158 3159 3160 3160 3161 3161 3162 3163 3163 3164 3165 3165 3166 3167 3168 3169 3169 3169 3169 3169 3169 3169 3169 3169 3168 3168 3168 3168 3168 3167 3167 3167 3167 3167 3167 3167 3167 3167 3167 3167 3167 3167 3167 3166 3166 3165 3165 3165 3164 3164 3164 3163 3162 3161 3161 3162 3162 3162 3162 3162 3162 3162 3162 3161 3162 3162 3159 3158 3156 3155 3155 3154 3154 3154 3153 3153 3153 3153 3153 3153 3153 3154 3155 3155 3156 3157
3157 3158 3158 3159 3159 3160 3160 3161 3162 3163 3163 3164 3165 3166 3166 3167 3168 3169 3169 3169 3169 3169 3169 3169 3168 3168 3168 3168 3167 3167 3167 3167 3167 3167 3167 3167 3167 3167 3167 3167 3167 3167 3166 3166 3166 3166 3165 3164 3164 3164 3164 3163 3163 3162 3161 3160 3160 3160 3160 3160 3160 3160 3161 3162 3162 3161 3162 3162 3158 3156 3155 3154 3154 3153 3153 3153 3153 3152 3152 3152 3152 3152 3153 3154 3154 3155 3156 3156
3157 3158 3158 3159 3159 3160 3160 3161 3162 3163 3163 3164 3165 3166 3167 3168 3168 3168 3168 3168 3168 3168 3168 3168 3168 3167 3167 3167 3167 3167 3167 3167 3167 3167 3167 3167 3167 3167 3166 3166 3166 3166 3165 3165 3165 3165 3164 3163 3163 3163 3162 3162 3162 3162 3161 3160 3159 3159 3159 3159 3159 3159 3160 3161 3162 3162 3163 3163 3159 3155 3154 3153 3153 3152 3152 3152 3151 3151 3151 3150 3151 3151 3152 3153 3154 3155 3155 3156
3157 3158 3158 3159 3159 3160 3160 3161 3162 3163 3164 3164 3165 3166 3167 3168 3168 3168 3168 3168 3167 3167 3167 3167 3167 3167 3167 3167 3166 3166 3166 3166 3166 3166 3166 3166 3166 3166 3165 3165 3165 3165 3165 3165 3164 3164 3164 3163 3162 3161 3161 3161 3161 3161 3160 3159 3159 3158 3157 3158 3157 3157 3158 3160 3162 3162 3162 3163 3160 3156 3153 3152 3152 3151 3151 3151 3151 3150 3150 3150 3150 3151 3153 3154 3154 3155 3155 3155
3158 3158 3159 3159 3160 3160 3161 3162 3162 3163 3164 3165 3165 3166 3167 3167 3167 3168 3167 3167 3167 3167 3167 3167 3167 3167 3167 3166 3166 3166 3166 3166 3166 3166 3165 3165 3165 3165 3165 3164 3164 3164 3164 3164 3163 3163 3163 3162 3161 3160 3160 3160 3159 3159 3159 3159 3159 3158 3157 3156 3156 3157 3158 3159 3160 3161 3161 3161 3160 3158 3155 3152 3151 3151 3151 3150 3150 3150 3149 3149 3150 3152 3153 3154 3154 3154 3154 3155
3158 3158 3159 3159 3160 3160 3161 3162 3163 3163 3164 3164 3165 3166 3166 3167 3167 3167 3167 3167 3167 3166 3166 3166 3166 3166 3166 3166 3166 3166 3166 3165 3165 3165 3165 3165 3165 3164 3164 3164 3163 3163 3163 3163 3162 3162 3161 3161 3159 3159 3159 3159 3158 3158 3158 3158 3158 3158 3156 3155 3155 3156 3157 3158 3159 3160 3160 3159 3158 3157 3155 3152 3151 3151 3150 3150 3150 3149 3150 3150 3151 3152 3153 3154 3154 3154 3154 3154
3158 3158 3159 3159 3160 3161 3161 3162 3163 3164 3164 3164 3165 3165 3166 3167 3167 3167 3166 3166 3166 3166 3166 3166 3166 3166 3166 3166 3165 3165 3165 3165 3165 3165 3164 3164 3164 3164 3163 3163 3163 3162 3162 3162 3161 3161 3160 3159 3158 3157 3157 3157 3157 3157 3157 3157 3157 3157 3156 3155 3154 3155 3156 3158 3160 3159 3158 3157 3156 3156 3154 3152 3151 3150 3150 3149 3149 3149 3150 3151 3152 3153 3153 3154 3154 3154 3154 3154
3159 3159 3159 3159 3160 3161 3162 3162 3163 3163 3164 3164 3165 3165 3166 3166 3167 3167 3166 3166 3166 3166 3166 3165 3165 3165 3165 3165 3165 3164 3165 3164 3164 3164 3164 3163 3163 3163 3163 3162 3162 3162 3161 3161 3160 3160 3159 3158 3157 3156 3156 3155 3155 3155 3155 3155 3155 3156 3155 3154 3153 3153 3155 3157 3159 3158 3157 3156 3155 3155 3153 3151 3150 3150 3149 3149 3148 3149 3150 3151 3152 3153 3154 3154 3154 3154 3154 3154
3159 3159 3159 3160 3160 3161 3161 3162 3162 3163 3164 3164 3165 3165 3165 3166 3166 3166 3166 3166 3166 3165 3165 3165 3164 3164 3164 3164 3164 3164 3164 3164 3163 3163 3163 3163 3162 3162 3162 3161 3161 3161 3160 3160 3160 3159 3158 3158 3157 3156 3155 3155 3154 3154 3154 3154 3154 3154 3154 3153 3153 3152 3153 3155 3156 3157 3156 3154 3153 3153 3152 3150 3150 3149 3149 3148 3148 3149 3150 3151 3152 3153 3154 3155 3155 3155 3155 3155
3159 3159 3160 3160 3160 3161 3161 3162 3162 3163 3163 3164 3165 3165 3165 3165 3165 3165 3165 3165 3165 3165 3164 3164 3163 3163 3163 3162 3162 3162 3162 3163 3162 3162 3162 3162 3162 3161 3161 3160 3160 3160 3159 3159 3159 3158 3158 3157 3157 3156 3156 3155 3155 3154 3153 3153 3152 3152 3152 3152 3152 3151 3152 3153 3154 3155 3155 3153 3152 3152 3150 3148 3148 3148 3148 3148 3148 3149 3150 3151 3152 3153 3154 3155 3155 3156 3156 3156
3159 3160 3160 3160 3160 3161 3161 3162 3163 3163 3163 3164 3164 3164 3164 3164 3164 3164 3164 3164 3163 3163 3163 3162 3162 3162 3161 3161 3161 3161 3161 3161 3161 3160 3160 3160 3160 3160 3160 3159 3159 3158 3158 3158 3158 3158 3157 3157 3156 3155 3155 3155 3154 3153 3153 3152 3151 3151 3151 3151 3151 3151 3151 3152 3153 3154 3154 3152 3150 3150 3149 3147 3146 3147 3148 3148 3149 3150 3150 3151 3152 3153 3154 3155 3156 3156 3157 3157
3160 3160 3160 3160 3160 3161 3161 3162 3162 3163 3163 3164 3164 3164 3163 3163 3163 3163 3163 3163 3162 3162 3162 3161 3161 3160 3160 3160 3160 3160 3159 3159 3159 3159 3158 3158 3158 3158 3158 3158 3158 3157 3157 3157 3156 3157 3156 3156 3155 3155 3154 3154 3153 3153 3152 3151 3150 3150 3150 3150 3151 3150 3149 3151 3153 3153 3153 3151 3149 3148 3148 3146 3146 3147 3148 3148 3149 3150 3149 3150 3152 3153 3154 3155 3155 3156 3157 3158
3160 3160 3160 3160 3160 3160 3161 3162 3162 3163 3163 3163 3163 3163 3163 3163 3163 3162 3162 3161 3161 3161 3161 3160 3160 3159 3159 3158 3158 3158 3158 3158 3158 3157 3157 3156 3156 3156 3156 3156 3156 3156 3155 3155 3155 3155 3155 3155 3154 3154 3153 3153 3152 3152 3151 3150 3150 3149 3149 3149 3149 3148 3149 3151 3153 3153 3152 3150 3148 3147 3146 3145 3145 3147 3147 3148 3150 3150 3150 3150 3151 3152 3153 3154 3155 3156 3157 3158
3159 3159 3159 3159 3160 3160 3161 3161 3162 3162 3162 3162 3162 3162 3162 3162 3161 3161 3161 3160 3160 3160 3160 3159 3159 3158 3158 3158 3158 3157 3157 3156 3156 3156 3155 3155 3154 3153 3153 3154 3154 3154 3153 3153 3153 3153 3153 3153 3153 3153 3152 3152 3151 3151 3150 3149 3149 3149 3148 3147 3147 3146 3148 3150 3152 3152 3152 3149 3147 3145 3145 3145 3144 3145 3146 3149 3151 3151 3150 3150 3151 3152 3153 3153 3154 3154 3155 3156
3159 3159 3159 3159 3159 3160 3161 3161 3161 3161 3161 3161 3161 3162 3162 3161 3160 3160 3160 3159 3159 3159 3159 3159 3158 3158 3158 3157 3157 3157 3156 3156 3155 3154 3154 3153 3153 3152 3152 3151 3152 3151 3151 3152 3152 3152 3152 3152 3152 3151 3151 3151 3150 3150 3149 3148 3148 3147 3147 3146 3145 3145 3146 3148 3150 3151 3150 3148 3146 3144 3144 3143 3143 3143 3145 3149 3151 3151 3150 3150 3150 3151 3152 3152 3153 3153 3154 3154
3158 3159 3159 3159 3159 3160 3160 3160 3161 3161 3160 3160 3160 3161 3161 3160 3159 3159 3159 3159 3159 3159 3158 3158 3158 3157 3157 3157 3157 3156 3155 3154 3154 3153 3153 3152 3152 3151 3151 3150 3150 3150 3150 3150 3150 3150 3150 3151 3151 3151 3150 3150 3150 3149 3148 3147 3147 3146 3146 3145 3145 3144 3144 3146 3149 3150 3148 3146 3144 3143 3142 3142 3142 3142 3144 3147 3149 3149 3149 3149 3150 3150 3151 3151 3152 3152 3152 3152
3158 3158 3159 3159 3160 3160 3160 3160 3160 3160 3160 3160 3160 3160 3160 3160 3159 3159 3159 3158 3158 3158 3158 3158 3157 3157 3156 3156 3156 3155 3153 3153 3152 3152 3152 3151 3151 3150 3150 3149 3149 3149 3149 3150 3149 3149 3149 3150 3150 3150 3149 3149 3149 3149 3148 3147 3147 3146 3145 3145 3145 3144 3143 3145 3147 3149 3148 3146 3144 3142 3141 3141 3140 3140 3142 3144 3147 3148 3148 3148 3149 3149 3150 3150 3151 3151 3151 3151